Location: Brunsbüttel
(52.3892°N, 10.6138°E)
Time: 19:00:59
(UTC+00:00)

SeaSat 1 - Pass Details

Date: 19 May 2025
Orbit: 738 x 740 km, 108.0° (Epoch: 20 June)

Event Time Altitude Azimuth Distance (km) Brightness Sun altitude
Exits shadow 19:57:08 - 115° (ESE) 2,623 4.7 -6.0°
Reaches altitude 10° 19:58:07 10° 111° (ESE) 2,250 4.4 -6.1°
Maximum altitude 20:02:34 36° 45° (NE) 1,158 3.5 -6.6°
Drops below altitude 10° 20:07:02 10° 340° (NNW) 2,262 6.2 -7.0°
Sets 20:09:27 0° 332° (NNW) 3,189 7.5 -7.3°
